RH
92 89 83 74 72 69 63 64 60 56 48 47 67 81 59 43 42 39 33 32 43 44 39 31 36 31 24 33 35 26 28 21 20 22 29 35 35 34 33 32 29 38 34 31 36 34 37
98 78 53 44 36 31 26 26 25 24 25 25 27 24 26 21 24 32 32 30 39 41 39 27 25 30 40 18 13 24 25 23 23 28 30 33 34 33 31 32 32 31 35 39 37 37 41
46 43 46 43 39 35 34 29 25 25 28 48 52 36 35 24 23 28 31 29 44 43 39 26 22 36 54 20 19 29 27 24 25 29 30 29 28 34 31 34 32 35 40 40 39 38 42
66 67 69 73 78 81 93 93 81 71 71 60 36 30 29 27 23 24 26 24 39 42 36 28 24 53 27 21 30 29 27 28 29 29 28 29 32 32 33 32 34 39 37 44 32 50 40
89 94 95 95 95 94 95 96 94 93 94 87 48 40 37 31 25 23 23 30 41 39 40 36 50 46 31 29 35 31 30 28 31 30 31 29 33 38 39 42 35 35 32 38 34 49 43
95 94 95 94 94 95 94 94 94 95 95 88 57 50 42 37 28 22 48 37 33 44 56 55 52 44 32 26 31 30 33 29 31 34 33 32 51 55 60 39 32 30 46 46 38 34 51
96 94 94 94 94 94 95 95 96 96 95 86 62 48 43 39 34 26 53 40 52 45 44 37 34 31 28 32 33 33 32 33 33 34 36 39 41 50 42 45 24 22 30 34 32 32 46
98 98 96 96 95 95 95 94 93 93 92 63 48 45 42 37 32 61 54 56 64 68 91 61 57 48 40 33 36 35 31 36 39 44 40 47 52 32 34 45 50 49 53 49 40 36 51
96 94 95 95 95 95 94 95 95 94 89 62 57 54 47 41 37 68 58 65 91 74 92 63 53 46 36 38 43 39 38 36 37 44 50 47 31 39 34 36 41 47 50 44 43 39 43
92 93 90 94 95 95 95 95 95 94 93 76 62 60 53 47 59 76 66 95 87 74 87 50 41 39 37 37 37 37 38 34 41 42 47 48 38 35 38 39 43 46 40 40 45 46 53
90 92 91 94 94 94 94 94 94 93 84 81 72 65 61 56 73 84 96 85 74 67 62 36 38 33 39 32 38 40 35 37 45 45 42 37 39 41 44 42 42 41 34 42 41 46 44
91 87 90 90 89 89 95 95 95 94 86 83 76 68 65 60 70 66 80 69 64 53 60 44 40 41 40 43 40 41 38 35 39 47 48 46 39 36 36 33 39 29 30 38 54 47 63
89 88 88 85 88 88 87 95 95 94 91 84 78 71 62 73 74 82 84 64 49 58 34 48 55 54 55 43 44 46 46 50 51 54 57 44 46 41 34 37 37 32 46 69 61 74 54
93 91 91 92 90 90 90 95 95 94 94 84 80 68 54 74 87 86 87 62 47 34 44 58 57 59 58 52 44 49 51 57 48 44 60 68 64 43 36 36 40 45 48 67 66 69 52
95 95 95 94 92 92 93 92 94 94 85 80 75 65 65 82 84 76 82 87 36 36 58 72 54 66 62 54 58 55 56 58 46 50 54 64 60 39 40 36 34 43 51 40 49 52 70
91 93 94 95 92 94 95 94 92 92 91 84 90 96 84 83 80 77 89 89 67 63 60 59 66 56 67 67 66 72 65 52 53 54 55 60 82 56 42 38 38 41 38 57 62 77 71
88 92 93 94 95 92 93 94 93 93 93 82 84 98 67 79 80 88 95 85 75 62 60 69 75 74 80 84 77 77 64 56 58 61 63 68 74 66 60 51 50 53 56 50 54 60 67
90 90 93 94 86 84 81 88 93 94 94 89 97 95 60 70 86 95 98 83 75 68 63 66 75 80 83 72 75 75 74 55 56 60 75 77 87 95 82 61 57 50 53 52 69 72 86
89 89 92 90 84 82 81 85 81 80 84 94 96 97 68 85 96 95 79 90 79 78 69 67 80 79 77 83 96 88 84 64 61 69 76 77 89 95 62 58 63 76 87 96 95 97 92
82 89 90 94 84 82 83 84 79 81 79 90 97 98 87 95 90 85 85 78 80 69 79 75 77 74 80 97 90 98 99 77 71 68 69 73 95 88 81 57 64 70 65 70 81 90 76
86 85 88 86 86 92 89 80 85 83 81 93 96 93 81 95 87 82 90 96 91 93 74 81 83 90 88 91 94 95 90 87 79 77 82 96 97 97 91 88 87 86 88 84 96 85 92
88 85 90 89 90 90 88 87 82 73 82 99 100 96 93 99 96 90 89 81 70 67 82 84 96 77 96 100 92 97 97 89 97 75 82 98 96 94 97 85 87 89 73 77 85 86 89
84 88 88 89 93 94 92 86 74 77 76 99 98 88 90 81 95 98 90 84 75 79 76 71 72 86 80 90 84 87 80 81 79 91 91 97 98 97 91 75 86 92 90 85 89 93 98
84 83 85 87 89 92 94 81 76 77 79 98 98 93 100 93 91 81 85 84 93 85 87 75 94 97 86 90 87 90 96 96 98 96 87 95 97 97 96 95 95 90 95 92 93 93 93
90 92 91 91 86 90 93 90 78 78 80 97 100 100 100 96 82 84 88 91 91 89 94 97 92 87 98 98 98 92 92 79 82 95 96 96 95 96 96 99 91 90 93 96 93 98 97
93 95 95 94 95 91 87 94 92 90 84 98 99 100 100 99 93 74 83 88 95 87 82 93 94 100 100 99 98 96 95 81 82 85 94 98 96 96 96 96 94 96 89 95 94 96 92
94 92 95 95 92 79 87 94 95 93 88 88 98 98 99 99 99 87 97 92 88 98 93 91 97 100 100 98 97 93 93 86 95 90 97 98 97 93 90 95 97 95 91 94 95 94 91
90 96 97 91 90 84 92 94 95 94 94 92 97 97 99 100 99 89 85 97 94 96 95 91 99 99 98 98 97 96 96 94 96 91 96 94 98 95 95 96 96 85 86 92 96 92 93
90 96 96 94 94 82 94 95 87 88 86 90 98 99 99 100 99 100 98 98 98 86 97 100 95 96 96 97 98 96 97 100 94 94 92 95 96 95 96 95 96 94 94 94 93 91 88
Wind_Speed
8 12 13 14 14 15 16 17 18 19 21 21 22 23 25 26 26 27 28 29 28 29 31 27 18 10 1 0 9 3 5 4 3 3 3 4 4 5 5 4 2 4 4 4 6 5 5
12 12 13 13 14 16 17 18 20 21 23 24 26 27 27 28 30 30 31 30 28 29 30 22 14 3 4 4 5 5 7 6 5 5 3 5 5 5 4 4 5 2 4 6 5 4 4
13 14 15 16 17 18 19 20 21 22 23 24 25 27 29 29 29 31 32 33 30 30 27 16 11 5 2 13 4 4 5 3 4 6 4 5 4 4 1 4 3 3 7 6 7 4 7
15 16 17 17 18 18 19 20 21 22 23 24 26 28 29 30 31 32 32 32 30 36 15 10 3 5 7 3 4 9 9 5 5 5 4 4 5 4 2 3 6 3 0 4 1 5 4
17 17 18 18 19 20 21 22 22 23 23 25 27 29 31 32 32 32 33 30 33 11 6 1 4 3 8 2 3 8 10 4 6 4 3 3 3 2 3 3 4 3 5 5 9 8 2
17 18 19 19 20 20 20 21 22 23 24 26 28 30 32 33 33 33 29 27 15 3 1 3 2 1 4 3 1 3 9 7 2 4 2 3 4 2 2 4 6 7 5 6 7 2 4
16 17 18 19 20 21 21 21 22 23 24 26 28 31 32 33 33 30 25 12 6 3 4 6 5 5 2 2 2 2 3 6 3 4 5 1 3 9 14 12 2 2 3 6 4 4 4
17 18 19 20 21 21 22 22 22 23 24 26 29 31 33 35 33 18 11 5 3 4 11 10 8 7 9 3 3 3 8 6 5 6 4 3 7 10 5 4 6 3 5 14 8 5 6
17 18 19 19 19 21 22 22 23 24 24 26 28 30 32 35 24 12 8 7 14 2 4 6 5 3 2 7 6 5 9 4 4 6 7 8 5 5 6 4 5 4 6 7 11 5 5
17 18 19 20 21 21 22 22 23 24 26 27 28 30 32 35 4 18 3 17 15 2 3 6 2 2 2 2 2 2 7 4 3 7 6 6 4 8 5 7 9 5 8 13 6 3 4
18 18 18 19 20 21 21 22 22 24 25 26 28 29 29 24 13 7 9 19 8 1 6 0 1 2 1 3 3 3 2 2 6 6 5 7 5 6 5 7 8 9 5 5 4 4 3
17 18 19 20 21 22 21 22 22 24 26 25 27 28 31 18 13 8 12 17 1 4 7 1 0 1 1 2 2 1 2 2 1 3 3 8 2 4 7 5 8 3 3 3 4 3 4
17 18 19 19 20 20 22 21 21 23 25 26 26 27 28 16 5 13 13 3 4 3 6 5 4 5 5 3 2 3 3 3 5 1 4 2 4 3 2 1 3 3 5 3 3 0 7
18 19 19 20 20 21 22 21 20 22 25 27 26 28 23 10 7 10 2 3 4 3 3 3 4 4 4 3 1 1 1 3 3 2 2 3 5 4 2 4 4 5 7 5 6 3 3
21 21 21 21 21 21 20 20 21 22 25 27 28 24 12 3 5 4 0 1 6 5 1 5 6 2 4 1 1 1 4 3 2 6 7 3 5 3 1 2 0 2 3 1 1 1 1
22 22 23 22 21 22 21 21 20 21 23 26 22 10 9 4 4 1 2 5 4 3 2 2 1 1 3 4 4 4 2 2 1 1 1 1 4 2 3 0 1 4 2 1 2 3 5
23 22 23 23 22 22 22 21 19 19 21 23 9 4 2 4 2 2 4 6 4 5 3 5 3 4 4 3 2 2 4 3 2 2 2 1 3 3 3 2 4 1 2 1 2 4 6
24 25 25 24 25 24 23 21 18 17 17 11 5 3 2 3 2 2 2 4 4 4 1 3 3 6 5 3 5 5 7 9 2 2 3 2 2 5 8 6 3 2 3 3 5 3 1
26 26 26 26 26 25 25 22 20 16 12 7 2 3 5 2 4 4 3 4 3 3 3 3 3 6 3 3 4 5 2 2 3 2 4 4 1 3 5 3 4 3 2 3 2 1 6
27 27 27 26 26 28 27 25 22 18 13 3 3 4 3 1 2 4 4 7 6 3 5 4 4 4 3 4 6 5 4 4 5 6 4 3 5 7 8 3 1 6 5 2 4 5 7
27 27 27 28 28 28 29 26 22 20 16 6 3 4 2 3 3 6 2 4 3 3 3 1 4 4 4 6 5 8 4 4 3 4 3 4 5 6 7 8 4 11 12 11 10 11 9
29 29 29 29 28 29 29 26 22 19 18 12 3 3 2 2 2 5 7 7 16 15 7 6 5 8 7 5 5 2 4 2 3 3 6 4 3 5 7 9 10 13 14 12 11 10 8
30 30 30 30 30 29 29 29 28 26 18 7 10 8 3 6 4 4 5 8 12 8 9 14 12 6 11 11 10 10 8 9 7 4 4 4 3 3 8 2 2 5 6 2 4 5 2
31 30 30 30 29 29 29 29 28 26 23 20 10 4 4 6 7 10 6 8 14 14 16 10 3 7 5 2 3 3 7 11 9 13 11 6 4 3 3 1 4 1 3 3 10 7 5
32 32 31 29 29 28 28 28 29 27 25 23 17 7 3 4 6 6 12 10 10 13 11 10 11 4 4 2 3 5 4 5 5 9 9 11 8 4 3 4 2 3 2 3 2 3 3
33 32 31 29 27 27 27 26 28 28 24 24 23 21 4 2 8 13 5 5 6 8 8 5 0 2 4 3 3 3 4 4 5 4 2 5 9 5 2 3 6 3 2 5 2 2 6
29 29 28 25 27 26 26 26 25 25 23 19 19 18 9 3 2 3 4 3 2 3 7 1 3 4 3 3 3 5 5 2 4 3 4 2 2 11 9 5 2 3 9 3 4 2 9
26 26 26 25 25 23 24 24 23 24 23 16 17 18 15 2 4 6 8 7 4 4 8 2 1 2 2 4 3 2 3 5 2 2 4 5 3 2 2 3 4 14 2 0 3 4 7
23 23 21 21 19 21 22 22 22 22 24 16 19 14 20 4 2 2 5 7 9 12 5 5 3 3 2 1 2 1 2 2 4 4 6 2 3 2 4 3 3 8 10 5 6 7 7
Wind_Direction
7 1 358 359 1 355 354 352 350 348 346 345 345 344 340 340 336 336 336 334 329 327 328 321 306 303 270 200 246 262 188 176 193 188 154 140 150 163 203 207 246 221 271 238 256 257 241
7 0 1 358 355 352 348 346 345 343 341 340 339 340 339 338 336 334 331 329 325 322 324 317 308 238 160 252 221 220 199 197 191 176 169 163 194 203 237 230 175 233 252 268 275 244 238
5 1 357 354 351 348 345 342 341 341 341 341 339 338 338 336 334 331 326 325 322 319 317 310 299 185 178 237 218 201 205 221 215 191 169 204 202 173 178 286 286 291 311 309 228 220 228
360 357 355 354 354 353 352 350 348 346 344 342 341 338 336 335 332 329 325 323 322 317 305 302 219 162 241 249 238 211 202 210 212 207 216 201 177 180 194 274 347 337 15 309 329 139 251
0 359 357 355 354 352 351 348 348 347 345 343 342 339 337 336 333 330 327 324 317 312 303 214 149 176 264 269 222 222 207 182 173 176 181 127 124 155 61 104 350 348 249 228 308 206 114
5 0 358 358 356 353 350 347 346 346 345 344 343 342 339 336 334 333 329 326 318 299 288 249 255 5 264 278 189 177 191 179 145 125 78 103 57 104 44 120 230 230 228 247 243 215 206
357 355 353 352 351 349 348 346 345 344 344 344 344 343 340 337 336 337 338 339 10 355 12 234 217 247 290 311 181 180 164 135 89 76 185 205 129 219 208 206 161 188 216 260 266 234 250
350 347 345 344 345 345 344 344 342 339 340 343 345 344 342 337 335 347 358 59 46 288 301 260 267 270 269 251 321 204 165 157 155 197 130 46 234 246 230 216 246 279 290 275 282 256 199
345 343 342 340 338 337 335 336 336 336 338 340 343 344 344 340 339 6 23 42 341 288 280 300 234 237 213 144 204 235 155 151 173 166 187 183 202 92 163 194 215 226 224 255 253 313 252
344 343 340 338 335 332 330 331 331 329 329 334 337 340 342 344 15 344 3 346 345 158 335 278 273 259 161 143 239 196 184 154 194 200 183 227 251 219 185 226 169 251 224 249 259 34 251
339 339 338 338 338 336 336 333 330 326 326 327 329 332 337 343 308 317 320 335 344 233 343 347 246 310 336 199 118 244 201 129 196 189 141 244 193 191 186 209 157 219 165 175 187 198 343
336 335 334 334 335 331 333 335 336 335 328 326 324 326 332 332 305 287 318 326 314 46 254 306 27 308 286 209 231 124 201 44 61 184 232 244 283 221 212 198 189 110 130 76 63 119 266
330 330 331 331 331 334 333 332 335 333 331 331 325 324 327 318 280 313 314 350 40 161 348 347 338 7 337 280 271 189 189 197 198 149 242 298 224 267 161 186 180 153 86 315 298 178 234
321 322 323 327 329 332 334 333 337 336 332 334 329 324 321 307 318 328 304 64 194 240 269 338 335 304 234 15 264 315 290 264 209 69 105 218 306 180 175 215 198 184 167 177 232 212 254
315 313 314 318 319 322 328 333 334 335 334 334 330 326 321 278 296 307 321 158 218 213 280 357 317 310 302 261 313 347 218 224 201 177 190 183 263 287 294 330 139 157 194 185 275 145 62
315 315 312 310 314 313 316 322 329 332 333 335 328 322 298 309 293 247 162 246 262 244 354 52 222 301 288 312 345 21 274 241 135 90 249 203 286 283 296 37 213 175 177 86 32 282 247
312 312 311 309 306 308 312 312 320 329 334 336 322 339 241 314 194 62 217 230 270 247 209 201 216 263 241 275 233 253 262 290 234 172 24 107 184 282 348 193 194 263 244 223 183 204 256
311 310 308 304 305 305 308 307 309 317 331 342 333 307 309 324 345 203 229 223 316 284 355 275 218 230 227 241 268 237 233 209 217 160 186 198 176 250 227 245 38 0 298 217 227 254 280
309 309 307 303 303 303 302 302 298 303 321 321 260 252 277 203 233 236 260 267 265 268 255 256 254 209 197 239 253 218 285 8 13 193 182 184 235 331 318 24 13 109 113 101 120 212 237
308 305 304 304 303 303 300 295 294 293 294 284 296 298 301 219 203 212 265 268 254 253 255 258 262 256 280 261 238 264 233 246 195 205 174 83 203 196 240 222 87 285 253 191 178 264 277
307 306 304 302 303 303 302 296 288 287 277 240 197 250 211 288 255 259 261 331 301 301 290 298 302 228 269 281 233 230 259 293 260 289 316 196 218 204 247 256 258 261 262 264 251 247 253
307 306 305 305 303 301 300 295 289 286 276 234 226 240 198 254 290 253 229 233 260 264 225 245 227 253 223 228 277 279 330 250 303 269 187 184 258 194 267 235 227 254 266 255 247 262 269
306 303 302 301 300 297 298 294 288 287 276 231 212 243 227 239 212 222 230 236 241 233 236 238 250 236 250 240 235 256 248 252 236 216 229 201 224 201 258 210 81 305 251 172 101 67 52
303 302 302 300 300 301 300 295 291 286 278 253 215 225 223 242 222 243 237 244 259 253 254 266 226 227 229 71 331 301 268 253 246 241 235 237 212 234 242 110 226 47 40 75 100 88 31
297 297 297 298 301 304 298 299 300 295 287 268 242 209 221 250 233 239 250 252 256 250 260 263 253 249 139 141 248 268 311 343 256 240 230 225 237 245 223 187 109 194 44 64 126 131 11
300 298 297 300 300 299 301 297 295 298 296 287 267 235 201 241 225 229 234 225 260 279 283 223 237 217 185 223 191 234 227 212 289 343 211 200 231 232 174 235 220 64 15 11 14 273 11
308 306 302 297 296 298 299 301 299 297 297 285 277 271 237 262 209 138 195 243 199 286 291 261 172 209 199 195 219 233 242 184 231 197 186 196 207 222 224 233 105 323 309 293 136 240 329
315 312 309 301 303 300 307 306 303 302 300 282 280 267 236 233 202 210 192 208 228 222 265 257 238 183 179 216 229 225 203 217 164 221 194 171 202 202 152 208 223 343 81 24 349 326 325
327 324 320 316 312 308 309 306 307 303 303 292 281 241 255 216 264 251 291 292 286 256 242 188 234 184 197 163 209 227 254 182 190 224 20 108 348 63 27 90 60 51 68 22 7 351 346